"Pseudo-MPEC" for ZTF02rs

Created 2019 Feb 20 14:18:09 UT using Find_Orb

Click here for an explanation of pseudo-MPECs

 
 Astrometry: 
     ZTF02rs  C2019 02 09.33902009 51 05.07 +22 17 26.1    ~29L3 17.62RUNEOCPI41
     ZTF02rs  C2019 02 09.33936709 51 10.94 +22 16 47.9    ~29L3 17.62RUNEOCPI41
     ZTF02rs  C2019 02 09.35098709 54 25.50 +21 55 21.3    ~29L3 17.53RUNEOCPI41
     ZTF02rs  C2019 02 09.35133409 54 31.18 +21 54 43.0    ~29L3 17.53RUNEOCPI41

Station data:
(I41) Palomar Mountain--ZTF  (N33.357340 W116.859780)  US/California. 1.2-m
   f/2.44 Oschin Schmidt + CCD.

Orbital elements:  ZTF02rs
   Perigee 2019 Feb 8.388576 +/- 34.2 TT =  9:19:33 (JD 2458522.888576)
Epoch 2019 Feb  9.0 TT = JDT 2458523.5                        AutoNEOCP
M  63.02222278 +/- 26               (J2000 equator)
n 103.07452362 +/- 0.422            Peri.    5.55942 +/- 60
a 97237.9845 +/- 5.74e+7            Node    14.30938 +/- 80
e   0.2424235 +/- 0.24              Incl.   30.17639 +/- 1.5
P5029.28m/3.493d           H 33.4   G  0.15   U 12.2  SR
q 73665.2074 +/- 1.64e+7    Q 120810.761 +/- 5.59e+9
From 4 observations 2019 Feb. 9 (17.7 min); mean residual 0".34
Residuals in arcseconds: 
190209 I41  .13-  .10+    190209 I41  .61+  .26-    
190209 I41  .12+  .10-    190209 I41  .60-  .26+    

Ephemerides (geocentric):
Date (UTC) HH   RA              Dec         delta   r     elong  mag " sig PA
---- -- -- --  -------------   -----------  ------ ------ -----  --- ---- ---
2019 02 20 14  13 08 25.055   -01 41 49.44  121052 .98928 134.7 19.6  67d  13
2019 02 20 15  13 17 43.157   -03 02 42.66  121093 .98926 132.1 19.7  64d  14
2019 02 20 16  13 27 02.619   -04 23 17.67  121048 .98924 129.6 19.7  64d  14
2019 02 20 17  13 36 24.859   -05 43 33.21  120917 .98922 127.0 19.8  64d  14
2019 02 20 18  13 45 51.310   -07 03 27.80  120700 .98920 124.4 19.9  64d  14
2019 02 20 19  13 55 23.435   -08 22 59.58  120397 .98918 121.7 20.0  64d  14
2019 02 20 20  14 05 02.737   -09 42 06.29  120008 .98915 119.1 20.0  63d  14
2019 02 20 21  14 14 50.773   -11 00 45.03  119533 .98913 116.5 20.1  63d  14
2019 02 20 22  14 24 49.163   -12 18 52.22  118974 .98910 113.8 20.2  63d  14
2019 02 20 23  14 34 59.606   -13 36 23.39  118329 .98908 111.1 20.2  62d  14
2019 02 21 00  14 45 23.885   -14 53 13.01  117601 .98905 108.3 20.3  62d  14
2019 02 21 01  14 56 03.885   -16 09 14.28  116788 .98902 105.5 20.4  62d  14
2019 02 21 02  15 07 01.601   -17 24 18.90  115894 .98899 102.7 20.5  61d  14
2019 02 21 03  15 18 19.146   -18 38 16.80  114917 .98896  99.8 20.6  61d  14
2019 02 21 04  15 29 58.759   -19 50 55.79  113860 .98893  96.9 20.6  61d  15
2019 02 21 05  15 42 02.810   -21 02 01.23  112724 .98890  93.9 20.7  59d  13
2019 02 21 06  15 54 33.799   -22 11 15.61  111510 .98887  90.9 20.8  59d  13
2019 02 21 07  16 07 34.346   -23 18 18.04  110221 .98884  87.8 20.9  58d  14
2019 02 21 08  16 21 07.179   -24 22 43.79  108859 .98881  84.6 21.1  58d  14
2019 02 21 09  16 35 15.100   -25 24 03.65  107426 .98877  81.3 21.2  57d  14
2019 02 21 10  16 50 00.945   -26 21 43.41  105926 .98874  77.9 21.3  57d  14
2019 02 21 11  17 05 27.517   -27 15 03.16  104362 .98871  74.4 21.5  57d  14
2019 02 21 12  17 21 37.500   -28 03 16.77  102739 .98869  70.9 21.6  56d  14
2019 02 21 13  17 38 33.346   -28 45 31.35  101061 .98866  67.2 21.8  56d  14
2019 02 21 14  17 56 17.132   -29 20 46.93   99334 .98863  63.4 22.0  56d  14
2019 02 21 15  18 14 50.396   -29 47 56.37   97564 .98861  59.4 22??  55d  14
2019 02 21 16  18 34 13.953   -30 05 45.65   95759 .98858  55.3 22??  55d  14
2019 02 21 17  18 54 27.715   -30 12 54.72   93929 .98856  51.1 22??  55d  14
2019 02 21 18  19 15 30.522   -30 07 59.01   92082 .98854  46.7 23??  55d  14
2019 02 21 19  19 37 20.035   -29 49 31.61   90230 .98853  42.1 23??  56d  14
2019 02 21 20  19 59 52.706   -29 16 06.42   88385 .98851  37.3 24??  56d  14
2019 02 21 21  20 23 03.857   -28 26 22.04   86563 .98851  32.4 25??  56d  14
2019 02 21 22  20 46 47.901   -27 19 06.33   84778 .98850  27.4 26??  57d  14
2019 02 21 23  21 10 58.676   -25 53 21.49   83050 .98850  22.2 27??  58d  14
2019 02 22 00  21 35 29.868   -24 08 29.41   81396 .98850  17.2 29??  59d  13
2019 02 22 01  22 00 15.495   -22 04 16.74   79838 .98851  12.5 31??  60d  13
2019 02 22 02  22 25 10.345   -19 40 59.64   78396 .98852   9.3 34??  71d   6
2019 02 22 03  22 50 10.351   -16 59 27.62   77093 .98854   9.9 33??  88d   0
2019 02 22 04  23 15 12.825   -14 01 06.26   75951 .98857  14.0 30?? 109d 175
2019 02 22 05  23 40 16.542   -10 47 58.29   74991 .98860  19.8 27?? 115d 174
2019 02 22 06  00 05 21.679   -07 22 42.70   74231 .98863  26.2 26?? 119d 173
2019 02 22 07  00 30 29.604   -03 48 31.52   73686 .98867  33.0 24?? 121d 173
2019 02 22 08  00 55 42.563   -00 09 03.98   73370 .98872  40.0 23?? 122d 173
2019 02 22 09  01 21 03.272   +03 31 41.65   73288 .98877  47.0 22?? 126d 173
2019 02 22 10  01 46 34.446   +07 09 38.33   73443 .98883  54.2 22?? 127d 173
2019 02 22 11  02 12 18.294   +10 40 41.52   73831 .98889  61.3 21.5 126d 173
2019 02 22 12  02 38 16.006   +14 01 00.72   74444 .98895  68.3 21.1 125d 173
2019 02 22 13  03 04 27.284   +17 07 09.92   75268 .98901  75.2 20.7 123d 173